Temperature
16 16 17 17 14 12 13 14 15 15 15 15 16 15 14 13 14 14 13 13 13 13 12 12 12 12 13 13 13 13 13 13 13 13 14 14 14 14 14 14 14 14 14 14 14 14 14 14 14
16 16 16 16 12 13 13 13 14 14 15 16 15 15 13 12 13 13 13 13 12 12 12 12 12 12 12 13 13 13 13 13 13 13 13 13 13 13 13 14 14 14 14 14 14 14 14 14 13
16 16 16 12 12 12 14 14 14 15 16 16 14 14 13 13 13 13 13 13 12 12 12 12 12 12 12 12 12 13 13 13 13 13 13 13 13 13 13 13 13 14 14 14 14 14 14 13 13
16 16 15 11 12 12 13 14 14 14 15 15 14 12 12 12 13 13 13 12 12 12 12 12 11 11 12 12 12 12 12 12 12 13 13 13 13 13 13 13 13 13 13 13 14 14 13 13 13
16 15 12 11 12 12 13 14 14 14 14 14 14 11 11 12 12 12 12 12 12 12 11 11 11 11 11 12 12 12 12 12 12 12 12 13 13 13 13 13 13 13 13 13 13 13 13 13 13
15 12 11 11 12 13 13 14 14 13 13 14 13 11 11 12 12 12 12 12 11 11 11 11 11 11 11 11 11 12 12 12 12 12 12 12 13 13 13 13 13 13 13 13 13 13 13 13 13
13 10 11 12 12 13 13 14 14 13 13 13 13 11 11 11 11 11 11 11 11 11 11 11 11 11 11 11 11 11 11 11 12 12 12 12 12 12 12 12 12 12 12 12 12 12 12 12 12
14 10 11 11 12 13 13 14 14 13 13 13 13 11 10 11 11 11 11 10 10 10 10 10 10 10 10 11 10 11 11 11 11 11 12 12 12 12 12 12 12 12 12 12 12 12 12 12 12
13 10 10 11 12 12 13 13 13 13 13 12 12 12 12 12 11 10 10 10 10 10 10 10 10 10 10 10 10 10 10 11 11 11 11 11 11 12 11 11 12 12 12 12 12 12 12 12 12
12 9 11 11 12 12 12 12 12 12 11 10 11 11 11 11 11 10 10 10 10 9 9 9 9 10 10 10 10 10 10 10 10 10 11 11 11 11 11 11 11 11 11 11 11 11 11 11 11
10 9 10 11 12 12 12 12 12 11 10 10 11 11 10 10 10 10 10 10 10 9 9 9 9 9 9 9 10 10 10 10 10 10 10 10 10 10 10 10 11 11 11 11 11 11 11 11 11
9 9 10 11 12 12 11 11 10 10 11 11 11 11 10 10 10 10 10 10 10 9 9 9 9 9 9 9 9 9 9 10 10 10 10 10 10 10 10 10 10 10 10 10 10 10 10 10 10
9 9 10 11 11 11 10 10 9 9 10 10 10 10 10 10 10 9 9 9 9 9 9 9 9 9 9 9 9 9 9 9 9 10 10 10 10 10 10 10 10 10 10 10 10 10 10 10 10
9 9 9 10 10 10 9 8 9 9 10 10 10 9 9 9 9 9 9 9 9 9 8 8 8 8 8 8 8 9 9 9 9 9 9 9 9 9 9 9 9 10 9 9 9 9 9 9 9
9 8 8 9 9 9 9 8 7 9 9 8 8 8 8 8 8 8 8 9 8 8 8 8 8 8 8 8 8 8 8 8 8 8 9 9 9 9 9 9 9 9 9 9 9 9 9 9 9
8 7 7 8 8 8 8 7 7 8 8 7 7 7 7 7 8 8 8 8 8 8 8 7 7 7 7 8 8 7 7 8 8 8 8 8 8 8 8 9 9 9 8 8 9 8 8 8 8
6 6 7 7 7 7 7 6 6 7 7 6 6 6 6 6 7 7 7 7 8 8 7 7 7 7 7 7 7 7 7 7 7 7 7 8 8 8 8 8 8 8 8 8 8 8 8 8 8
6 6 6 6 7 6 5 5 5 5 5 5 5 5 5 5 6 6 7 7 7 7 7 7 7 7 7 6 6 6 7 7 7 7 7 7 7 7 7 7 7 7 7 7 7 7 7 7 7
6 6 6 6 6 6 5 4 4 4 4 4 4 4 4 5 5 6 6 6 6 6 6 6 6 6 6 6 6 6 6 6 6 6 6 6 7 7 7 7 7 7 7 7 7 7 7 7 6
6 6 5 5 6 5 4 4 4 3 3 4 3 3 4 4 4 5 5 5 5 6 5 5 6 5 6 6 6 6 6 6 6 6 6 6 6 6 6 6 6 6 6 6 6 6 6 6 6
6 5 5 5 4 4 4 3 3 3 3 3 3 3 3 3 4 4 4 4 5 5 5 5 5 5 5 5 5 5 5 5 5 5 5 5 5 5 6 6 6 6 6 6 6 6 6 6 5
5 5 5 4 4 3 3 3 3 2 2 2 2 2 2 3 3 3 4 4 4 4 4 4 4 4 4 4 4 5 5 5 5 5 5 5 5 5 5 5 5 5 5 5 5 5 5 5 5
4 4 4 4 3 2 2 2 2 2 2 2 1 1 2 2 2 3 3 3 4 4 4 4 4 4 4 4 4 4 4 4 4 4 4 4 4 4 4 4 4 4 4 5 5 5 4 4 4
4 3 3 2 2 2 2 2 2 1 2 2 1 1 1 1 2 2 2 3 3 3 3 3 3 3 3 3 3 3 3 3 3 3 3 4 4 4 4 4 4 4 4 4 4 4 4 4 4
3 2 2 2 2 2 2 1 2 1 1 1 0 1 1 1 1 1 2 2 2 2 2 3 3 3 3 3 2 3 3 3 3 3 3 3 3 3 3 3 3 3 3 3 3 3 3 3 3
2 2 2 3 2 2 1 1 1 0 0 0 0 0 0 0 0 1 1 1 1 2 2 2 2 2 2 2 2 2 2 2 2 2 2 2 2 2 2 3 2 3 3 3 3 3 3 3 3
2 1 2 1 0 0 1 0 0 -0 -1 -1 -1 -1 -0 -0 -0 0 0 0 1 1 1 1 1 1 1 1 1 1 1 1 2 1 1 1 2 2 2 2 2 2 2 2 2 2 2 2 2
2 1 -0 1 1 1 1 0 1 0 -1 -2 -2 -2 -1 -1 -1 -1 -0 -0 -0 0 0 0 0 1 1 1 1 1 1 1 1 1 1 1 1 1 1 1 1 1 1 2 1 2 2 2 2
0 0 -0 -1 -0 0 0 1 -0 -1 -1 -2 -2 -2 -2 -1 -1 -1 -1 -1 -1 -1 -0 -0 -0 -0 -0 -0 -0 -0 -0 0 0 0 0 0 0 0 0 1 1 1 1 1 1 1 1 1 1
-1 -1 -1 -0 -1 -2 -1 -0 -1 -2 -2 -2 -2 -2 -2 -2 -2 -2 -2 -1 -1 -1 -1 -1 -1 -1 -1 -1 -1 -1 -1 -1 -1 -1 -1 -0 -0 -0 -0 -0 0 0 0 0 0 0 0 0 0
Wind_Speed
7 5 3 4 5 4 2 3 2 1 0 0 2 5 7 4 2 3 1 4 6 6 6 8 9 10 11 11 11 11 11 11 12 12 12 12 12 12 12 13 13 13 13 14 15 15 15 15 15
3 2 4 5 4 2 4 3 3 4 3 2 3 4 5 3 2 4 2 3 7 7 6 7 10 11 11 11 11 11 10 10 11 12 11 11 12 12 12 12 13 13 13 14 14 14 14 14 14
2 2 4 4 3 5 5 4 5 3 1 1 2 3 3 3 3 3 3 5 7 7 6 8 10 11 11 11 11 11 10 10 10 11 11 11 12 12 12 12 12 13 13 14 14 13 13 13 13
3 4 4 3 4 5 5 3 3 3 0 1 3 3 2 2 2 3 4 6 7 5 6 8 10 10 10 10 10 10 10 10 10 10 11 11 11 11 11 11 11 12 13 13 13 12 12 12 12
4 4 3 1 5 4 4 4 3 2 2 0 3 3 1 4 2 5 6 7 8 5 6 8 10 10 10 10 10 9 9 10 10 10 10 10 10 11 10 10 11 12 12 12 12 11 11 11 12
4 4 3 5 6 4 4 4 2 1 1 0 3 4 2 1 4 5 6 6 6 6 6 7 9 9 9 9 9 9 9 9 9 10 10 10 10 10 10 9 10 11 11 11 11 10 10 11 12
4 4 4 5 5 5 5 3 3 3 1 2 3 5 2 1 2 5 6 6 6 6 6 6 7 8 9 9 9 8 9 9 9 9 9 9 9 9 9 9 9 10 10 10 10 10 10 10 11
4 4 3 4 5 6 3 1 2 3 2 0 3 6 5 4 4 6 6 6 6 5 5 5 5 6 7 8 9 9 9 9 9 9 9 9 9 9 9 9 9 9 10 10 10 9 9 10 10
3 2 6 6 6 4 2 2 1 1 3 2 2 1 2 7 7 8 5 4 4 4 3 4 5 5 6 7 8 9 9 9 9 8 9 9 8 9 8 8 9 9 9 9 8 8 8 9 10
3 6 9 4 4 4 2 2 2 2 2 1 3 4 5 8 8 8 7 6 5 4 3 3 4 4 5 6 7 7 7 8 8 8 8 8 8 7 7 8 9 9 9 8 8 7 8 8 8
4 6 4 3 2 2 1 1 0 4 2 4 4 5 6 6 6 7 6 6 6 5 4 3 3 4 5 5 6 6 6 7 7 7 7 8 8 7 7 7 7 8 8 8 7 7 7 8 7
3 4 3 2 1 1 1 1 0 2 4 4 6 8 8 7 7 7 7 6 5 5 4 3 4 4 4 5 5 5 5 5 5 6 7 7 5 5 5 5 5 6 6 6 6 5 6 7 7
5 4 3 3 1 1 0 1 2 3 3 2 5 7 7 7 6 5 4 4 4 4 4 4 4 4 4 5 4 5 4 5 6 6 7 7 5 4 4 4 4 4 5 4 4 4 5 5 6
3 3 3 3 3 2 2 3 2 6 3 4 5 5 5 6 5 3 3 4 4 5 5 4 4 4 4 4 4 4 5 5 6 6 6 7 6 5 4 3 3 3 4 4 4 4 4 4 5
0 1 4 3 3 3 2 4 5 5 3 4 4 4 3 3 3 4 4 4 5 5 5 5 5 5 5 4 4 4 5 5 5 5 6 6 6 5 4 3 3 3 3 4 4 4 4 4 4
2 1 3 4 3 2 4 8 5 3 4 4 3 3 3 2 2 2 2 2 3 4 5 5 4 5 5 4 4 4 5 5 4 5 5 5 6 5 4 3 2 3 4 4 3 3 2 2 2
1 2 5 5 2 2 4 6 3 2 4 4 3 3 2 1 1 1 1 1 2 3 4 5 5 5 5 4 4 5 4 4 4 4 4 4 5 5 5 3 3 3 3 2 2 2 2 2 2
4 4 4 5 2 2 4 5 4 3 3 4 3 2 1 2 2 1 0 0 1 2 2 3 4 4 4 4 4 3 3 3 3 3 3 3 4 5 5 4 3 4 3 2 2 2 2 2 2
4 4 5 5 2 2 5 6 5 4 2 3 3 3 2 3 2 1 1 2 3 3 2 2 3 3 4 3 3 3 2 2 1 2 3 3 3 4 4 3 3 3 2 2 2 2 2 1 1
3 4 4 4 2 2 3 5 5 4 4 3 4 4 3 2 1 1 1 2 2 2 1 1 2 2 3 3 3 2 3 2 1 1 2 2 2 3 3 3 2 2 2 2 2 2 1 1 1
5 6 6 4 3 1 1 5 4 3 2 1 2 2 2 3 2 1 0 1 2 2 1 1 1 1 2 3 3 2 2 2 1 1 1 1 2 3 3 3 3 2 2 3 2 3 3 2 1
7 4 3 3 1 3 2 4 6 4 4 3 3 2 2 2 1 1 0 1 1 0 1 1 1 2 2 3 3 4 3 2 2 2 2 1 2 2 3 3 3 2 2 2 2 1 1 3 2
4 2 2 3 3 1 1 3 6 2 4 6 4 3 2 1 1 1 1 1 0 1 1 1 2 2 2 2 2 3 2 2 1 1 2 1 1 1 2 2 2 2 1 2 2 1 2 2 3
0 2 2 3 2 4 5 5 6 3 5 4 2 2 2 1 0 0 1 2 2 2 2 2 2 1 1 2 1 2 2 2 2 2 2 2 1 1 1 2 2 2 2 2 2 2 2 3 3
3 3 2 3 1 6 3 4 7 4 3 2 2 2 1 1 0 1 1 2 2 2 2 2 1 1 1 1 0 0 1 2 3 3 3 2 2 2 2 2 2 2 2 2 2 2 2 3 3
2 4 5 4 5 4 2 6 5 2 1 1 0 1 1 1 0 1 1 1 1 1 1 2 2 1 0 0 1 1 1 1 2 2 2 3 3 3 2 2 2 2 2 2 2 2 3 2 3
2 3 3 3 0 2 5 5 5 0 2 2 2 2 1 1 1 0 0 1 1 1 1 1 1 2 1 1 1 1 1 1 1 2 2 2 2 2 2 2 2 2 3 3 2 2 3 3 3
1 3 3 3 3 4 5 5 4 4 3 2 2 2 2 2 1 1 0 1 1 1 1 2 1 1 2 2 1 1 1 1 1 1 2 2 2 2 2 3 3 3 3 3 2 3 3 3 3
1 2 2 3 3 4 4 6 3 4 4 4 3 2 2 1 1 1 1 1 1 2 2 2 2 2 2 2 2 2 2 2 1 2 2 2 2 2 2 3 3 3 3 3 3 3 3 4 4
2 4 4 4 4 4 3 6 2 2 1 2 2 2 2 2 1 1 1 1 2 2 2 2 2 2 2 2 1 2 2 2 2 2 3 2 2 2 3 3 3 3 4 3 4 4 4 4 4
Wind_Direction
332 351 63 59 60 61 219 246 225 254 9 312 88 100 113 118 146 170 153 142 132 140 151 147 134 127 118 111 105 100 100 100 97 93 91 89 92 91 90 89 86 83 82 81 80 79 79 77 75
342 29 59 65 103 161 251 241 217 227 192 146 73 85 89 103 102 117 132 149 134 135 136 142 133 129 122 117 112 108 105 103 102 99 95 92 93 93 90 89 87 85 85 84 82 80 79 78 75
338 73 86 87 137 186 212 214 203 221 221 136 78 57 109 140 136 155 178 143 123 122 127 136 131 129 125 119 115 111 109 106 104 102 98 95 95 94 92 91 91 89 88 86 84 82 81 78 75
63 56 62 93 212 225 209 211 195 177 335 62 120 82 68 10 164 164 141 123 116 108 125 137 134 130 126 123 118 115 112 110 107 103 101 99 98 95 94 91 94 92 91 89 85 82 82 78 75
65 87 92 212 238 240 229 229 198 174 172 121 121 129 129 341 79 117 121 120 124 116 124 140 138 132 128 125 122 119 115 111 110 106 103 101 102 98 95 94 98 96 95 92 87 84 81 78 75
73 90 138 215 230 239 244 234 196 204 213 186 124 134 166 15 100 121 118 117 117 118 116 131 135 134 130 126 123 121 117 113 110 107 105 104 105 102 98 98 102 101 100 96 91 86 82 78 78
126 129 186 201 218 236 239 230 188 193 205 228 149 137 173 241 145 126 116 108 102 104 103 105 120 128 132 129 126 124 121 115 110 106 104 102 105 105 102 100 99 102 99 95 94 89 84 80 79
137 130 191 206 208 231 236 216 203 179 193 18 120 151 195 211 156 117 106 105 105 94 92 95 105 116 123 127 128 124 119 114 109 106 103 101 104 106 102 97 97 100 97 93 93 90 83 80 79
109 134 214 208 199 216 203 178 278 95 104 55 39 141 193 141 128 115 104 102 116 114 105 102 101 108 115 123 127 124 120 115 112 108 106 98 92 94 96 97 98 99 98 94 92 89 82 76 77
123 199 221 210 200 195 201 184 188 100 84 65 35 37 96 122 133 139 148 157 157 160 154 125 116 113 119 123 120 115 114 113 111 110 108 101 94 91 94 100 99 95 94 92 87 81 73 70 71
160 201 213 233 224 187 195 199 131 143 211 210 185 160 139 135 144 157 169 173 173 168 166 155 136 129 125 121 121 116 116 115 115 115 112 108 100 92 89 90 88 86 83 78 74 66 62 66 70
188 240 215 230 229 236 224 206 262 188 220 212 172 155 153 159 172 177 180 182 174 165 170 161 144 133 134 135 133 132 128 123 120 122 119 115 104 95 91 91 93 91 87 81 76 70 66 67 71
221 240 251 247 254 230 183 222 203 243 242 140 127 137 159 172 182 192 188 178 169 172 172 166 154 143 140 137 137 139 137 137 137 129 128 125 116 112 107 103 106 102 99 92 82 78 71 67 70
216 223 252 256 237 230 200 261 220 246 203 144 145 161 178 180 182 177 176 181 185 185 181 168 161 145 140 141 140 140 141 143 138 132 135 135 134 131 119 109 104 101 106 110 107 98 83 72 76
159 284 296 266 222 213 155 272 238 238 163 152 168 170 165 175 171 181 192 193 196 191 180 175 165 141 139 143 143 140 142 141 135 139 143 141 137 135 124 114 107 113 116 113 104 93 82 74 72
69 97 259 265 209 203 172 247 254 228 160 169 183 182 174 191 193 209 197 186 192 183 178 177 164 149 148 142 132 130 131 129 129 138 145 145 139 137 127 115 105 114 118 111 102 96 92 74 73
47 239 245 268 223 163 186 243 275 247 165 180 199 196 183 199 288 264 236 193 175 176 175 175 160 157 154 141 128 120 120 120 123 129 135 141 138 141 132 122 118 114 109 104 112 98 110 107 95
225 232 244 242 247 167 209 243 280 276 191 196 208 206 199 215 254 252 264 79 119 119 137 152 152 152 139 129 120 112 104 97 107 117 131 135 133 136 132 126 124 121 99 89 91 110 92 116 122
201 211 242 251 244 198 225 250 267 263 228 220 220 221 231 246 270 25 55 72 79 68 82 113 134 145 141 145 152 156 162 159 130 115 130 133 133 139 134 124 125 123 122 129 126 116 104 79 107
221 234 253 283 305 233 255 273 269 244 230 223 214 222 231 247 334 31 57 71 79 85 80 103 120 144 151 156 158 167 162 169 162 122 124 145 153 154 148 129 129 136 131 123 128 116 125 148 135
235 223 236 256 323 343 318 296 277 267 238 252 231 223 226 207 210 212 72 69 80 74 90 119 119 133 133 123 118 109 90 84 104 157 172 185 189 171 154 145 141 147 149 163 163 165 151 184 235
246 231 235 233 214 265 194 268 270 257 267 266 267 257 246 241 219 206 137 63 74 57 60 70 82 88 97 116 135 147 158 179 197 193 205 212 196 174 165 157 156 158 155 168 180 177 177 171 199
236 274 234 207 178 269 253 220 278 279 261 264 255 251 258 245 211 210 195 183 117 43 56 69 77 72 78 92 135 157 169 185 168 169 180 194 217 198 181 174 165 166 174 179 178 182 191 183 190
268 29 41 60 99 253 227 196 270 243 244 267 274 268 267 287 308 58 59 61 37 30 46 54 75 67 67 84 112 146 175 177 165 177 194 205 220 230 212 202 193 190 194 198 198 197 201 202 196
55 81 21 341 284 247 214 202 247 257 261 218 219 265 278 285 37 96 79 60 46 36 28 32 65 41 35 57 87 181 211 197 196 201 206 210 217 236 235 221 213 213 218 212 198 201 213 209 198
216 154 171 217 237 271 261 229 245 266 332 87 140 288 353 347 343 150 156 133 102 47 28 25 23 356 355 341 278 286 269 223 224 220 221 221 225 236 234 225 223 220 220 218 207 219 230 222 209
168 204 186 152 204 265 262 278 294 239 6 9 6 10 341 323 311 289 79 93 86 44 2 4 1 347 315 279 274 270 283 284 274 269 247 248 247 245 228 229 231 232 223 216 210 226 233 227 219
158 156 113 147 197 254 275 260 250 246 253 276 301 311 310 332 339 339 329 359 30 32 9 13 9 336 332 325 293 294 273 278 281 280 259 259 264 255 239 236 237 241 234 221 218 232 235 227 230
137 157 152 170 186 191 261 268 236 213 220 224 247 261 268 269 271 278 305 340 14 34 37 22 3 352 333 318 317 318 292 288 288 286 278 266 267 264 253 241 237 241 240 233 228 233 231 228 237
192 192 167 185 234 203 220 266 294 216 236 208 242 266 279 276 289 326 24 35 27 19 10 357 343 332 314 303 308 313 318 307 291 285 289 276 271 268 264 254 246 247 247 240 228 234 236 229 234
Height
1514 1515 1516 1518 1522 1531 1533 1528 1522 1520 1520 1519 1518 1518 1520 1524 1527 1532 1529 1528 1529 1531 1533 1534 1536 1537 1538 1538 1539 1540 1540 1541 1541 1542 1543 1543 1543 1544 1544 1544 1545 1545 1545 1546 1546 1546 1546 1547 1547
1514 1515 1517 1518 1527 1536 1533 1525 1522 1519 1518 1518 1519 1519 1520 1523 1525 1526 1526 1527 1529 1531 1532 1533 1535 1536 1537 1538 1539 1539 1540 1541 1541 1542 1542 1543 1544 1544 1544 1545 1545 1545 1546 1546 1546 1547 1547 1548 1548
1513 1514 1517 1520 1529 1532 1527 1521 1519 1517 1517 1518 1519 1520 1522 1523 1524 1524 1525 1527 1528 1530 1531 1533 1535 1536 1537 1537 1538 1539 1540 1540 1541 1542 1542 1543 1544 1544 1545 1545 1545 1546 1546 1546 1547 1547 1548 1548 1549
1513 1515 1517 1524 1527 1524 1520 1517 1517 1517 1517 1517 1518 1521 1522 1524 1524 1524 1525 1526 1528 1529 1531 1532 1534 1535 1536 1537 1538 1539 1539 1540 1541 1541 1542 1543 1543 1544 1545 1545 1546 1546 1547 1547 1547 1548 1548 1549 1549
1512 1514 1521 1527 1524 1520 1517 1516 1516 1516 1517 1517 1518 1520 1522 1523 1523 1524 1525 1526 1527 1529 1530 1532 1533 1534 1535 1536 1537 1538 1539 1540 1540 1541 1542 1543 1543 1544 1545 1545 1546 1546 1547 1547 1547 1548 1549 1549 1549
1512 1513 1524 1526 1522 1518 1516 1515 1516 1516 1516 1517 1517 1519 1521 1522 1522 1523 1524 1526 1527 1528 1529 1531 1532 1534 1535 1535 1536 1537 1538 1539 1540 1540 1541 1542 1543 1544 1544 1545 1546 1546 1547 1547 1548 1548 1549 1549 1549
1511 1516 1520 1520 1520 1518 1515 1514 1515 1515 1515 1516 1516 1518 1520 1521 1522 1522 1524 1525 1526 1528 1529 1530 1531 1533 1534 1535 1536 1537 1538 1539 1539 1540 1541 1541 1542 1543 1544 1545 1545 1546 1546 1547 1547 1548 1548 1549 1549
1509 1515 1518 1519 1518 1516 1513 1513 1513 1514 1515 1516 1516 1517 1518 1519 1520 1521 1523 1524 1525 1526 1528 1529 1530 1531 1533 1534 1535 1536 1536 1537 1538 1539 1540 1541 1542 1543 1543 1544 1545 1546 1546 1547 1547 1548 1548 1548 1549
1509 1517 1517 1515 1514 1513 1511 1512 1513 1513 1514 1515 1515 1515 1516 1517 1518 1520 1521 1523 1524 1525 1526 1527 1529 1530 1531 1532 1533 1534 1535 1536 1537 1538 1539 1540 1541 1542 1543 1544 1544 1545 1546 1546 1547 1547 1548 1548 1549
1508 1515 1510 1510 1509 1510 1510 1510 1511 1512 1513 1514 1514 1514 1514 1515 1517 1518 1519 1520 1521 1522 1524 1526 1527 1528 1530 1531 1532 1532 1534 1535 1536 1537 1538 1539 1540 1541 1542 1543 1544 1544 1545 1546 1546 1547 1547 1548 1548
1506 1509 1508 1508 1508 1508 1509 1510 1511 1511 1513 1512 1512 1512 1513 1514 1515 1516 1517 1518 1519 1521 1522 1523 1525 1526 1528 1529 1530 1531 1532 1533 1535 1536 1537 1538 1539 1540 1541 1542 1542 1543 1544 1544 1545 1546 1546 1547 1548
1506 1506 1506 1507 1507 1508 1508 1509 1510 1510 1511 1510 1510 1511 1511 1512 1513 1514 1515 1516 1518 1519 1520 1521 1523 1524 1525 1527 1528 1529 1530 1531 1533 1534 1535 1537 1538 1538 1539 1540 1541 1542 1543 1543 1544 1545 1545 1546 1547
1505 1505 1505 1506 1506 1507 1508 1508 1509 1509 1509 1509 1509 1509 1510 1510 1512 1513 1514 1515 1516 1517 1518 1519 1520 1522 1523 1524 1526 1527 1528 1530 1531 1532 1534 1535 1536 1537 1538 1539 1539 1540 1541 1542 1543 1544 1544 1545 1546
1503 1504 1505 1505 1505 1506 1507 1508 1508 1506 1507 1507 1507 1508 1509 1509 1510 1511 1511 1512 1513 1514 1516 1517 1518 1519 1521 1522 1523 1525 1526 1528 1529 1530 1532 1533 1534 1535 1536 1537 1538 1539 1540 1541 1542 1542 1543 1544 1545
1503 1505 1505 1504 1504 1505 1507 1508 1506 1504 1505 1505 1505 1506 1507 1507 1508 1508 1509 1510 1511 1512 1513 1514 1516 1517 1518 1520 1521 1523 1524 1526 1527 1528 1529 1530 1531 1532 1533 1534 1535 1536 1538 1539 1540 1541 1542 1542 1543
1505 1508 1509 1504 1503 1504 1508 1507 1504 1503 1503 1503 1504 1504 1504 1505 1506 1506 1507 1507 1508 1509 1511 1512 1513 1514 1515 1517 1518 1520 1521 1523 1524 1526 1527 1528 1529 1530 1531 1532 1533 1534 1535 1536 1537 1538 1539 1540 1541
1509 1511 1509 1505 1503 1503 1506 1506 1504 1502 1502 1502 1502 1502 1502 1503 1503 1504 1504 1505 1506 1507 1508 1509 1510 1511 1513 1514 1516 1518 1519 1521 1522 1523 1524 1525 1527 1528 1529 1530 1531 1531 1533 1534 1535 1536 1537 1537 1538
1510 1510 1508 1506 1503 1504 1506 1506 1504 1502 1502 1501 1501 1501 1501 1500 1501 1502 1502 1503 1503 1504 1506 1507 1508 1509 1511 1512 1514 1515 1516 1518 1519 1520 1522 1523 1524 1525 1526 1527 1528 1529 1530 1531 1532 1533 1535 1536 1536
1504 1506 1506 1504 1502 1504 1505 1504 1503 1501 1500 1499 1499 1499 1499 1499 1500 1500 1500 1501 1501 1502 1503 1504 1505 1506 1508 1509 1510 1512 1513 1515 1516 1518 1519 1520 1521 1522 1523 1524 1525 1526 1527 1528 1529 1530 1532 1533 1534
1503 1505 1506 1505 1503 1504 1506 1504 1501 1499 1498 1497 1497 1497 1497 1497 1497 1497 1498 1498 1499 1500 1501 1502 1502 1504 1505 1507 1508 1509 1511 1512 1513 1514 1516 1517 1519 1520 1520 1521 1522 1523 1524 1525 1526 1528 1529 1530 1531
1502 1504 1505 1506 1505 1505 1507 1504 1501 1497 1497 1496 1495 1495 1495 1495 1494 1495 1496 1496 1497 1498 1499 1500 1500 1501 1503 1504 1506 1507 1507 1509 1510 1511 1513 1514 1515 1517 1518 1518 1519 1520 1521 1522 1523 1525 1526 1527 1528
1501 1500 1502 1504 1508 1511 1509 1510 1500 1497 1496 1494 1493 1493 1493 1493 1493 1493 1494 1494 1495 1496 1497 1498 1499 1500 1500 1502 1503 1504 1504 1505 1506 1508 1509 1511 1512 1513 1514 1515 1516 1517 1518 1519 1520 1522 1523 1524 1524
1500 1500 1502 1503 1507 1512 1511 1513 1502 1498 1495 1492 1491 1491 1491 1491 1491 1492 1492 1493 1494 1495 1495 1496 1497 1498 1499 1500 1501 1501 1502 1503 1504 1505 1506 1508 1509 1510 1511 1512 1513 1514 1515 1516 1517 1518 1519 1520 1521
1500 1502 1503 1507 1510 1513 1509 1512 1502 1498 1493 1490 1490 1490 1489 1490 1490 1490 1491 1492 1492 1493 1494 1495 1495 1496 1497 1497 1498 1499 1500 1500 1501 1502 1503 1504 1505 1506 1507 1508 1510 1510 1511 1512 1513 1514 1515 1516 1517
1502 1507 1512 1512 1515 1510 1506 1508 1500 1493 1491 1490 1489 1489 1488 1488 1488 1488 1489 1489 1490 1491 1492 1493 1493 1494 1494 1495 1496 1496 1497 1498 1498 1499 1500 1501 1501 1502 1503 1505 1506 1506 1507 1508 1509 1510 1511 1512 1513
1503 1505 1511 1513 1512 1509 1507 1504 1497 1492 1490 1489 1489 1488 1487 1487 1487 1487 1487 1488 1488 1489 1490 1490 1491 1492 1492 1493 1493 1494 1494 1495 1496 1496 1497 1498 1498 1499 1500 1501 1502 1503 1504 1505 1505 1506 1507 1508 1508
1504 1507 1507 1513 1516 1516 1507 1503 1495 1491 1490 1489 1488 1487 1486 1486 1486 1486 1486 1487 1487 1488 1488 1489 1489 1489 1490 1490 1490 1491 1492 1492 1492 1493 1494 1494 1495 1495 1496 1497 1498 1499 1500 1501 1501 1501 1502 1503 1503
1503 1505 1511 1512 1512 1510 1506 1504 1496 1491 1490 1489 1488 1487 1486 1486 1485 1485 1485 1485 1486 1486 1487 1487 1487 1487 1487 1488 1488 1488 1488 1489 1489 1490 1490 1491 1491 1492 1492 1493 1494 1494 1495 1496 1496 1497 1497 1498 1498
1506 1507 1508 1511 1512 1511 1510 1500 1490 1489 1487 1487 1487 1486 1486 1485 1484 1484 1484 1484 1484 1485 1485 1485 1485 1485 1485 1485 1485 1485 1485 1486 1486 1487 1487 1487 1488 1488 1488 1489 1489 1490 1490 1491 1491 1491 1492 1492 1493
1505 1505 1508 1509 1511 1514 1512 1501 1488 1487 1486 1486 1486 1486 1485 1484 1484 1483 1483 1483 1483 1482 1482 1483 1482 1482 1482 1482 1482 1482 1482 1483 1483 1483 1484 1484 1484 1484 1484 1484 1485 1485 1486 1486 1486 1487 1487 1487 1488